TimePST,TemperatureF,Dew PointF,Humidity,Sea Level PressureIn,VisibilityMPH,Wind Direction,Wind SpeedMPH,Gust SpeedMPH,PrecipitationIn,Events,Conditions,WindDirDegrees,DateUTC
12:15 AM,48.2,39.2,71,30.01,10.0,WNW,3.5,-,N/A,,Clear,290,2012-11-10 08:15:00
12:35 AM,48.2,39.2,71,30.01,10.0,West,4.6,-,N/A,,Clear,260,2012-11-10 08:35:00
12:55 AM,48.2,39.2,71,30.01,10.0,West,6.9,-,N/A,,Scattered Clouds,280,2012-11-10 08:55:00
1:15 AM,48.2,39.2,71,30.01,10.0,West,5.8,-,N/A,,Partly Cloudy,270,2012-11-10 09:15:00
1:35 AM,48.2,39.2,71,30.02,10.0,WNW,5.8,-,N/A,,Clear,300,2012-11-10 09:35:00
1:55 AM,48.2,39.2,71,30.02,10.0,NW,4.6,-,N/A,,Clear,310,2012-11-10 09:55:00
2:15 AM,50.0,39.2,66,30.02,10.0,West,6.9,-,N/A,,Partly Cloudy,280,2012-11-10 10:15:00
2:35 AM,50.0,39.2,66,30.02,10.0,West,5.8,-,N/A,,Partly Cloudy,270,2012-11-10 10:35:00
2:55 AM,50.0,39.2,66,30.02,10.0,West,4.6,-,N/A,,Clear,270,2012-11-10 10:55:00
3:15 AM,50.0,39.2,66,30.02,10.0,West,5.8,-,N/A,,Clear,280,2012-11-10 11:15:00
3:35 AM,50.0,39.2,66,30.02,10.0,West,8.1,-,N/A,,Partly Cloudy,260,2012-11-10 11:35:00
3:55 AM,50.0,39.2,66,30.02,10.0,West,5.8,-,N/A,,Partly Cloudy,260,2012-11-10 11:55:00
4:15 AM,50.0,39.2,66,30.03,10.0,Calm,Calm,-,N/A,,Scattered Clouds,0,2012-11-10 12:15:00
4:35 AM,48.2,39.2,71,30.03,10.0,Calm,Calm,-,N/A,,Scattered Clouds,0,2012-11-10 12:35:00
4:55 AM,48.2,39.2,71,30.04,10.0,Calm,Calm,-,N/A,,Scattered Clouds,0,2012-11-10 12:55:00
5:15 AM,48.2,39.2,71,30.04,10.0,West,3.5,-,N/A,,Clear,260,2012-11-10 13:15:00
5:35 AM,48.2,39.2,71,30.05,10.0,West,3.5,-,N/A,,Clear,270,2012-11-10 13:35:00
5:55 AM,48.2,39.2,71,30.05,10.0,West,3.5,-,N/A,,Clear,270,2012-11-10 13:55:00
6:15 AM,48.2,39.2,71,30.05,10.0,West,6.9,-,N/A,,Clear,260,2012-11-10 14:15:00
6:35 AM,48.2,39.2,71,30.06,10.0,West,6.9,-,N/A,,Clear,270,2012-11-10 14:35:00
6:47 AM,48.2,39.2,71,30.06,10.0,West,6.9,-,N/A,,Scattered Clouds,260,2012-11-10 14:47:00
6:55 AM,48.2,39.2,71,30.07,10.0,West,6.9,-,N/A,,Clear,280,2012-11-10 14:55:00
7:47 AM,50.0,39.2,66,30.09,10.0,Calm,Calm,-,N/A,,Scattered Clouds,0,2012-11-10 15:47:00
8:51 AM,53.6,41.0,62,30.11,10.0,West,8.1,-,N/A,,Mostly Cloudy,270,2012-11-10 16:51:00
9:47 AM,55.4,39.2,54,30.13,10.0,WNW,12.7,18.4,N/A,,Mostly Cloudy,300,2012-11-10 17:47:00
10:49 AM,55.4,35.6,47,30.14,10.0,NW,13.8,-,N/A,,Scattered Clouds,320,2012-11-10 18:49:00
11:53 AM,57.2,32.0,38,30.13,10.0,WNW,10.4,-,N/A,,Scattered Clouds,300,2012-11-10 19:53:00
12:47 PM,57.2,35.6,44,30.13,10.0,West,11.5,16.1,N/A,,Scattered Clouds,270,2012-11-10 20:47:00
1:47 PM,57.2,35.6,44,30.13,10.0,WNW,15.0,-,N/A,,Scattered Clouds,300,2012-11-10 21:47:00
2:47 PM,57.2,35.6,44,30.14,10.0,WNW,13.8,19.6,N/A,,Scattered Clouds,300,2012-11-10 22:47:00
3:49 PM,55.4,37.4,51,30.15,10.0,WNW,15.0,-,N/A,,Scattered Clouds,290,2012-11-10 23:49:00
4:47 PM,53.6,39.2,58,30.16,10.0,West,9.2,-,N/A,,Partly Cloudy,280,2012-11-11 00:47:00
5:47 PM,53.6,39.2,58,30.18,10.0,West,8.1,-,N/A,,Partly Cloudy,260,2012-11-11 01:47:00
6:50 PM,51.8,41.0,67,30.19,10.0,West,6.9,-,N/A,,Clear,270,2012-11-11 02:50:00
8:47 PM,50.0,39.2,66,30.22,10.0,West,6.9,-,N/A,,Clear,280,2012-11-11 04:47:00
9:15 PM,50.0,39.2,66,30.23,10.0,WNW,5.8,-,N/A,,Clear,290,2012-11-11 05:15:00
9:35 PM,50.0,39.2,66,30.24,10.0,WNW,5.8,-,N/A,,Clear,300,2012-11-11 05:35:00
9:55 PM,48.2,39.2,71,30.24,10.0,SW,3.5,-,N/A,,Clear,220,2012-11-11 05:55:00
10:15 PM,48.2,39.2,71,30.24,10.0,SE,5.8,-,N/A,,Clear,140,2012-11-11 06:15:00
10:35 PM,46.4,37.4,71,30.25,10.0,Calm,Calm,-,N/A,,Clear,0,2012-11-11 06:35:00
10:55 PM,48.2,39.2,71,30.25,10.0,SSW,3.5,-,N/A,,Clear,210,2012-11-11 06:55:00
11:15 PM,46.4,39.2,76,30.26,10.0,SW,3.5,-,N/A,,Clear,230,2012-11-11 07:15:00
11:35 PM,48.2,39.2,71,30.26,10.0,SW,4.6,-,N/A,,Clear,230,2012-11-11 07:35:00
11:55 PM,44.6,39.2,81,30.26,10.0,South,3.5,-,N/A,,Clear,170,2012-11-11 07:55:00